ARIANE 3 DEB, 33536

Orbit data source: Space-Track

ARIANE 3 DEB, 33536 is space debris in HEO originally from a launch on Thu, 08 Sep 1988 UTC launched from the French Guiana (FRGUI). Debris objects in space refer to the collection of defunct objects orbiting the Earth. Examples of debris include non-operational satellites, rocket bodies, and fragments generated from explosions, collisions, or faulty payload assembly.

Loading next visibility...
Identifier
33536, 1988-081L
Orbit
HEO
Country
Flag of FRFR
Related business
Manufacturer
Unknown
Mission
Spacecraft
Bus & Motor
Unknown
Mass
Unknown
Launch date (UTC)
1988-09-08 (38 years ago)
Launch vehicle
Unknown
Launch site
French Guiana (FRGUI)
Object type
Payload
Rocket body
Debris
Shape & HBR
Unknown shape, 1.1 m
Radar Cross Section
Small (<0.1 m²)

Expand to show TLE details & history
Last TLE update: 16 hours ago

TLE from 16 hours ago
0 ARIANE 3 DEB
1 33536U 88081L   26123.71694650 -.00000170  00000-0  00000-0 0  9996
2 33536   6.7349 294.8311 6975542 117.7208 357.7118  2.15748894172597
Epoch: 2026-05-03T17:12Z
TLE epoch observation values (Epoch: 2026-05-03T17:12:24.177Z)
Latitude
6.67338°
Longitude
-84.42067°
Altitude
1,386.184 km
Speed
9.323 km/s
True Right ascension
02h 21m 11s
True Declination
6° 38' 13"
Sunlit
Object was in daylight at epoch
Visualization orbit readout
Latitude
Unknown
Longitude
Unknown
Altitude
Unknown
Speed
Unknown
Apparent Right ascension
Unknown
Apparent Declination
Unknown
Sunlit
N/A
Visualization observer readout
Local Sidereal Time
16:38:44
Azimuth
Unknown
Elevation
Unknown
Doppler factor
Unknown
Orbital elements
Apogee altitude
36,576.125 km
Perigee altitude
1,274.836 km
Semi-major axis
25,303.618 km
Eccentricity
0.69755
Inclination
6.7349°
RAAN
294.8311°
Arg. of periapsis
117.7208°
True anomaly
342.31°
Mean anomaly
357.7118°
Eccentric anomaly
352.48402°
Mean motion
0.53922 °/min
Orbital period
667.63 mins
BSTAR
0
Loading maneuver chart data...
Computing Atmospheric mass density...
Loading historical data...
Loading historical data...
Loading historical data...
Loading historical data...
Loading historical data...
Loading historical data...
Loading historical data...

Documentation

Showing up to 5 results
|